Showing default

CO3D3, 64900

Orbit data source: Space-Track

CO3D3, 64900 is a payload satellite owned by CNES (FR) in SSO that was launched on Sat, 26 Jul 2025 UTC via a VEGA C launch vehicle from the French Guiana (FRGUI). Payload-class satellites include a variety of spacecraft equipped with specific instruments for various scientific and technological missions. These include communications satellites like Starlink; space stations such as the ISS; scientific satellites like the Hubble; Earth observation satellites from companies like Planet Labs, Umbra, and HawkEye 360; GPS; miniature CubeSats for education and research; and military/defense satellites.

Loading next visibility...
Identifier
64900, 2025-156B
Orbit
SSO
Country
Flag of FRFR
Related business
Manufacturer
Airbus/Toulouse
Mission
Operational spacecraft
Bus & Motor
ASTROBUS-SE, Unknown motor
Mass
285 kg wet, 285 kg dry
Launch date (UTC)
2025-07-26 (1 month ago)
Launch vehicle
VEGA C
Launch site
French Guiana (FRGUI)
Object type
Payload
Rocket body
Debris
Shape & HBR
Unknown
Radar Cross Section
Large (>1 m²)

Expand to show TLE details & history
Last TLE update: 1 day ago

TLE from 1 day ago
0 CO3D3
1 64900U 25156B   25241.92179431  .00008360  00000-0  38551-3 0  9990
2 64900  97.4361 319.7934 0004171  81.5556 278.6152 15.20493964  5289
Epoch: 2025-08-29T22:07Z
TLE epoch observation values (Epoch: 2025-08-29T22:07:23.028Z)
Latitude
-0.00001°
Longitude
9.58395°
Altitude
507.011 km
Speed
7.611 km/s
True Right ascension
21h 19m 10s
True Declination
0° 00' 00"
Sunlit
Object was in full shadow at epoch
Visualization orbit readout
Latitude
Unknown
Longitude
Unknown
Altitude
Unknown
Speed
Unknown
Apparent Right ascension
Unknown
Apparent Declination
Unknown
Sunlit
N/A
Visualization observer readout
Local Sidereal Time
16:11:42
Azimuth
Unknown
Elevation
Unknown
Doppler factor
Unknown
Orbital elements
Apogee altitude
504.185 km
Perigee altitude
498.447 km
Semi-major axis
6,879.453 km
Eccentricity
0.00042
Inclination
97.4361°
RAAN
319.7934°
Arg. of periapsis
81.5556°
True anomaly
278.56794°
Mean anomaly
278.6152°
Eccentric anomaly
278.59157°
Mean motion
3.80375 °/min
Orbital period
94.64 mins
BSTAR
0.00038551
Loading maneuver chart data...
Computing Atmospheric mass density...
Loading historical data...
Loading historical data...
Loading historical data...
Loading historical data...
Loading historical data...
Loading historical data...
Loading historical data...
Other satellites on launch #156 in the year 2025 (2025-07-26 UTC)

Documentation

Showing up to 5 results
|